ASA430 KLCK-KMKE

Flight info

Callsign ASA430
Flight time N/A
Altitude 40000
Route PKACZ TARRY ROD FWA ELX BRAVE EXARR
Aircraft A333/H-SDE3GHIJ2J3J5M1RVWXY/LB2D1

Departure

Time 2026-05-06 00:36
Airport Rickenbacker International Airport (KLCK)

Arrival

Time N/A
Airport General Mitchell International Airport (KMKE)
Time Latitude Longitude Altitude Speed Heading
2026-05-06 00:13 39.82187 -82.92561 742 ft 0 kts 314°
2026-05-06 00:28 39.82183 -82.92556 747 ft 4 kts 314°
2026-05-06 00:28 39.82165 -82.92532 743 ft 4 kts 320°
2026-05-06 00:28 39.82144 -82.92515 742 ft 4 kts 342°
2026-05-06 00:28 39.82120 -82.92511 745 ft 4 kts 17°
2026-05-06 00:29 39.82106 -82.92519 742 ft 1 kts 43°
2026-05-06 00:33 39.82108 -82.92517 742 ft 3 kts 43°
2026-05-06 00:33 39.82210 -82.92389 744 ft 45 kts 46°
2026-05-06 00:33 39.82423 -82.92101 742 ft 37 kts 46°
2026-05-06 00:33 39.82609 -82.91863 742 ft 37 kts 44°
2026-05-06 00:34 39.82757 -82.91670 742 ft 20 kts 49°
2026-05-06 00:34 39.82768 -82.91594 745 ft 8 kts 121°
2026-05-06 00:34 39.82660 -82.91445 741 ft 29 kts 134°
2026-05-06 00:34 39.82519 -82.91258 743 ft 28 kts 139°
2026-05-06 00:35 39.82395 -82.91199 742 ft 13 kts 207°
2026-05-06 00:35 39.82332 -82.91279 745 ft 14 kts 226°
2026-05-06 00:35 39.82185 -82.91475 744 ft 59 kts 225°
2026-05-06 00:35 39.81695 -82.92118 743 ft 140 kts 225°
2026-05-06 00:36 39.80830 -82.93248 927 ft 205 kts 225°
2026-05-06 00:36 39.79736 -82.94695 1577 ft 241 kts 224°
2026-05-06 00:36 39.78768 -82.96503 2552 ft 250 kts 246°
2026-05-06 00:36 39.78718 -82.98734 3806 ft 253 kts 281°
2026-05-06 00:37 39.79718 -83.00652 4968 ft 269 kts 313°
2026-05-06 00:37 39.81427 -83.01824 5862 ft 286 kts 331°
2026-05-06 00:37 39.83157 -83.03038 6701 ft 277 kts 310°
2026-05-06 00:37 39.83953 -83.04218 7309 ft 269 kts 297°
2026-05-06 00:38 39.84912 -83.06266 8307 ft 262 kts 290°
2026-05-06 00:38 39.85672 -83.08409 9327 ft 260 kts 286°
2026-05-06 00:38 39.86336 -83.10596 10225 ft 262 kts 285°
2026-05-06 00:38 39.86992 -83.12891 10688 ft 281 kts 285°
2026-05-06 00:39 39.87693 -83.15336 11059 ft 300 kts 286°
2026-05-06 00:39 39.88474 -83.17945 11672 ft 311 kts 287°
2026-05-06 00:39 39.89281 -83.20536 12492 ft 314 kts 288°
2026-05-06 00:39 39.90122 -83.23172 13373 ft 316 kts 288°
2026-05-06 00:40 39.90979 -83.25829 14151 ft 319 kts 288°
2026-05-06 00:40 39.91845 -83.28508 14878 ft 323 kts 288°
2026-05-06 00:40 39.92721 -83.31224 15592 ft 326 kts 288°
2026-05-06 00:40 39.93603 -83.33972 16322 ft 330 kts 288°
2026-05-06 00:41 39.94491 -83.36746 17049 ft 333 kts 288°
2026-05-06 00:41 39.95385 -83.39545 17778 ft 336 kts 288°
2026-05-06 00:41 39.96287 -83.42375 18438 ft 340 kts 288°
2026-05-06 00:41 39.97198 -83.45238 19049 ft 343 kts 288°
2026-05-06 00:42 39.98117 -83.48127 19638 ft 347 kts 288°
2026-05-06 00:42 39.99043 -83.51043 20235 ft 350 kts 288°
2026-05-06 00:42 39.99979 -83.53991 20852 ft 353 kts 288°
2026-05-06 00:42 40.00868 -83.56968 21500 ft 352 kts 284°
2026-05-06 00:43 40.01483 -83.60034 22019 ft 355 kts 279°
2026-05-06 00:43 40.01982 -83.63202 22526 ft 359 kts 278°
2026-05-06 00:43 40.02418 -83.66425 23041 ft 363 kts 277°
2026-05-06 00:43 40.02823 -83.69694 23529 ft 367 kts 276°
2026-05-06 00:44 40.03216 -83.72989 23985 ft 369 kts 276°
2026-05-06 00:44 40.03608 -83.76303 24493 ft 369 kts 277°
2026-05-06 00:44 40.04005 -83.79616 25001 ft 370 kts 277°
2026-05-06 00:44 40.04568 -83.82906 25488 ft 373 kts 284°
2026-05-06 00:45 40.05487 -83.86097 25960 ft 378 kts 291°
2026-05-06 00:45 40.06812 -83.89086 26442 ft 384 kts 301°
2026-05-06 00:45 40.08560 -83.91769 26945 ft 392 kts 310°
2026-05-06 00:45 40.10705 -83.94013 27517 ft 400 kts 320°
2026-05-06 00:46 40.13176 -83.95783 27966 ft 408 kts 326°
2026-05-06 00:46 40.15774 -83.97337 28405 ft 412 kts 329°
2026-05-06 00:46 40.18429 -83.98794 28851 ft 415 kts 330°
2026-05-06 00:46 40.21113 -84.00220 29285 ft 418 kts 330°
2026-05-06 00:47 40.23814 -84.01651 29731 ft 419 kts 329°
2026-05-06 00:47 40.26422 -84.03294 30126 ft 413 kts 322°
2026-05-06 00:47 40.28782 -84.05367 30597 ft 404 kts 314°
2026-05-06 00:47 40.30795 -84.07795 31151 ft 394 kts 307°
2026-05-06 00:48 40.32609 -84.10462 31778 ft 388 kts 305°
2026-05-06 00:48 40.34334 -84.13174 32294 ft 385 kts 303°
2026-05-06 00:48 40.35993 -84.15880 33060 ft 375 kts 303°
2026-05-06 00:48 40.37583 -84.18505 34088 ft 360 kts 302°
2026-05-06 00:49 40.39118 -84.21047 34743 ft 352 kts 302°
2026-05-06 00:49 40.40639 -84.23573 34972 ft 355 kts 302°
2026-05-06 00:49 40.42183 -84.26137 35140 ft 358 kts 302°
2026-05-06 00:49 40.43737 -84.28707 35400 ft 360 kts 302°
2026-05-06 00:50 40.45296 -84.31277 35714 ft 360 kts 302°
2026-05-06 00:50 40.46858 -84.33842 36020 ft 360 kts 302°
2026-05-06 00:50 40.48421 -84.36408 36316 ft 360 kts 302°
2026-05-06 00:50 40.49966 -84.38944 36604 ft 360 kts 302°
2026-05-06 00:51 40.51529 -84.41512 36904 ft 360 kts 302°
2026-05-06 00:51 40.53092 -84.44083 37200 ft 359 kts 302°
2026-05-06 00:51 40.54127 -84.45787 37381 ft 359 kts 302°